Location: Newark
(52.8300°N, 8.0000°E)
Time: 06:28:13
(UTC+00:00)

STARLINK-1096 - Pass Details

Date: 01 February 2020
Orbit: 344 x 355 km, 53.0° (Epoch: 23 February)

Event Time Altitude Azimuth Distance (km) Brightness Sun altitude
Rises 17:19:55 0° 283° (WNW) 2,193 7.9 -10.4°
Reaches altitude 10° 17:22:11 10° 268° (W) 1,345 7.1 -10.7°
Maximum altitude 17:24:37 23° 213° (SSW) 836 5.2 -11.1°
Drops below altitude 10° 17:27:03 10° 159° (SSE) 1,339 5.5 -11.4°
Enters shadow 17:29:22 - 143° (SE) 2,209 6.5 -11.8°
